Hourly Data Report for August 20, 2020

OTTAWA INTL A
ONTARIO
Current Station Operator: NAVCAN

45°19'00.000" N
75°40'00.000" W
114.90 m
6106001
71628
YOW

Download Data

Hourly Data (August 2020)
Hourly Data Report for August 20, 2020
TIME
LST
Temp Definition
°C
Dew Point Definition
°C
Rel Hum Definition
%
Precip. Amount Definition
mm

Wind Dir Definition
10's deg

Wind Spd Definition
km/h
Visibility Definition
km
Stn Press Definition
kPa
Hmdx Definition


Wind Chill Definition


Weather Definition


00:00 10.3 9.6 95   21 3 24.1 100.35     LegendNANA
01:00 10.3 9.7 96   22 4 24.1 100.35     Clear
02:00 10.0 9.3 96   36 3 24.1 100.37     LegendNANA
03:00 10.4 9.6 95   23 7 24.1 100.36     LegendNANA
04:00 10.0 9.3 96   20 8 24.1 100.38     Mostly Cloudy
05:00 10.1 9.5 96   23 7 24.1 100.42     LegendNANA
06:00 11.6 10.3 92   5 4 24.1 100.42     LegendNANA
07:00 13.4 11.5 88   36 2 24.1 100.46     Mainly Clear
08:00 14.6 12.5 87   14 4 24.1 100.43     LegendNANA
09:00 18.4 11.2 63   24 8 24.1 100.41     LegendNANA
10:00 18.3 11.6 65   23 8 24.1 100.43     Mostly Cloudy
11:00 18.4 12.8 69   15 7 24.1 100.36     Rain
12:00 19.0 12.8 67   15 6 24.1 100.26     LegendNANA
13:00 19.4 12.2 63   15 3 24.1 100.23     Cloudy
14:00 19.4 13.4 68   8 7 24.1 100.14     Rain
15:00 18.9 14.5 75   9 5 24.1 100.05     LegendNANA
16:00 19.5 14.2 71   6 4 24.1 99.96     Cloudy
17:00 18.9 13.3 69   13 8 24.1 99.88     LegendNANA
18:00 18.2 13.8 75   12 8 24.1 99.79     LegendNANA
19:00 18.6 14.0 74   17 7 24.1 99.77     Mostly Cloudy
20:00 17.9 14.4 80   14 7 24.1 99.77     LegendNANA
21:00 17.8 13.9 77   20 9 24.1 99.75     LegendNANA
22:00 18.4 14.5 78   20 14 24.1 99.72     Mostly Cloudy
23:00 19.0 14.6 75   22 14 24.1 99.70     LegendNANA

Notes on Data Quality.

Legend

  • E = Estimated
  • M = Missing
  • NA = Not Available*
  • [empty] = Indicates an unobserved value
Date modified: